Flag Weather past 2 weeks in Volgograd, Russia

Now
18 °F

Ice fog.


Feels Like: 9 °F
Forecast: 18 / 26 °F
Wind: 6 mph from North

Location: Volgograd Airport

Current Time: Nov 23, 2014 at 5:20:40 AM

Latest Report: Nov 23, 2014 at 4:30 AM


Visibility: 0 mi

Pressure: 30.27 "Hg

Humidity: 93%

Dew point: 16 °F

Location of VolgogradLocation

Historic Weather in Volgograd — Graph

°F

Volgograd temperature yesterday

Maximum temperature yesterday: 28 °F (at 12:30 PM)
Minimum temperature yesterday: 16 °F (at 1:00 AM)
Average temperature yesterday: 20 °F

Past Weeks' High & Low Weather Summary

 TemperatureHumidityPressure
High46 °F (Nov 9, 1:30 PM)100% (Nov 8, 4:00 AM)30.60 "Hg (Nov 8, 4:00 AM)
Low16 °F (Nov 18, 12:30 AM)40% (Nov 20, 3:00 PM)30.24 "Hg (Nov 14, 3:00 PM)
Average30 °F89%30.42 "Hg
* Reported Nov 8 4:00 AM — Nov 23 4:00 AM, Volgograd, Weather by CustomWeather, © 2014

Note: Actual official high and low records may vary slightly from our data, if they occured in-between our weather recording intervals... More about our weather records

Advertising

Volgograd weather history for previous 24 hours

 ConditionsComfort  
Time TempWeatherWind HumidityBarometerVisibility
4:00 AM
Nov 23
18 °FIce fog.3 mph93%30.27 "Hg0 mi
3:30 AM18 °FIce fog.6 mph93%30.27 "Hg0 mi
3:00 AM18 °FIce fog.6 mph93%30.27 "Hg0 mi
2:30 AM19 °FIce fog.6 mph93%30.27 "Hg0 mi
2:00 AM19 °FIce fog.6 mph93%30.27 "Hg0 mi
1:30 AM19 °FIce fog.10 mph93%30.27 "Hg0 mi
1:00 AM18 °FIce fog.8 mph100%30.27 "Hg0 mi
12:30 AM19 °FIce fog.8 mph93%30.27 "Hg1 mi
12:00 AM19 °FIce fog.10 mph93%30.27 "Hg1 mi
11:30 PM
Nov 22
18 °FIce fog.8 mph100%30.30 "Hg1 mi
11:00 PM18 °FIce fog.8 mph93%30.27 "Hg1 mi
10:30 PM18 °FIce fog.10 mph93%30.27 "Hg2 mi
10:00 PM16 °FIce fog.10 mph100%30.27 "Hg2 mi
9:30 PM16 °FIce fog.10 mph100%30.27 "Hg2 mi
9:00 PM16 °FIce fog.8 mph100%30.30 "Hg2 mi
8:30 PM18 °FPassing clouds.8 mph93%30.30 "HgN/A
8:00 PM18 °FPassing clouds.10 mph93%30.27 "HgN/A
7:30 PM18 °FPassing clouds.13 mph93%30.30 "HgN/A
7:00 PM18 °FPassing clouds.10 mph100%30.30 "HgN/A
6:30 PM18 °FClear.10 mph93%30.30 "Hg10 mi
6:00 PM19 °FClear.15 mph86%30.30 "Hg10 mi
5:30 PM21 °FClear.13 mph80%30.30 "Hg10 mi
5:00 PM21 °FClear.10 mph80%30.30 "Hg10 mi
4:30 PM23 °FClear.10 mph74%30.30 "Hg10 mi
4:00 PM25 °FSunny.15 mph63%30.30 "Hg10 mi
3:30 PM27 °FSunny.15 mph59%30.30 "Hg10 mi
3:00 PM27 °FSunny.15 mph59%30.30 "Hg10 mi
2:30 PM27 °FSunny.17 mph59%30.30 "Hg10 mi
2:00 PM27 °FSunny.15 mph64%30.30 "Hg10 mi
1:30 PM27 °FSunny.17 mph64%30.30 "Hg10 mi
1:00 PM28 °FSunny.22 mph51%30.30 "Hg10 mi
12:30 PM28 °FSunny.22 mph55%30.33 "Hg10 mi
12:00 PM27 °FSunny.22 mph54%30.33 "Hg10 mi
11:30 AM25 °FSunny.22 mph59%30.33 "Hg10 mi
11:00 AM25 °FSunny.20 mph63%30.33 "Hg10 mi
10:30 AM23 °FSunny.20 mph74%30.33 "Hg10 mi
10:00 AM23 °FSunny.20 mph74%30.33 "Hg10 mi
9:30 AM21 °FSunny.15 mph80%30.33 "Hg10 mi
9:00 AM19 °FSunny.15 mph86%30.36 "Hg10 mi
8:30 AM18 °FSunny.13 mph93%30.36 "Hg10 mi
8:00 AM16 °FSunny.10 mph93%30.36 "Hg10 mi
7:30 AM16 °FSunny.13 mph93%30.36 "Hg10 mi
7:00 AM18 °FClear.13 mph86%30.36 "Hg10 mi
6:30 AM18 °FClear.10 mph86%30.36 "Hg10 mi
6:00 AM16 °FClear.10 mph86%30.36 "Hg10 mi
5:30 AM16 °FClear.8 mph86%30.36 "Hg10 mi
5:00 AM16 °FClear.10 mph86%30.36 "Hg10 mi
Weather by CustomWeather, © 2014

See weather overviewHow to use our weather pages